Indianapolis, IN

9:32 AM EDT on April 24, 2017 (GMT -0400)
Indianapolis International

Weather History for KIND - February, 2013

Change the Weather History Date:

Monday, February 4, 2013

  Actual Average Record
Temperature  
Mean Temperature 27 °F 29 °F  
Max Temperature 37 °F 37 °F 69 °F (1890)
Min Temperature 17 °F 21 °F -12 °F (1996)
Degree Days  
Heating Degree Days 38 36  
Month to date heating degree days 182 144  
Since 1 July heating degree days 3246 3365  
Cooling Degree Days 0 0  
Month to date cooling degree days 0 0  
Year to date cooling degree days 0 0  
Moisture  
Dew Point 23 °F    
Average Humidity 75    
Maximum Humidity 89    
Minimum Humidity 61    
Precipitation  
Precipitation 0.01 in 0.08 in 1.68 in (1971)
Month to date precipitation 0.08 0.33  
Year to date precipitation 5.59 2.99  
Snow  
Snow T in 0.30 in 6.80 in (2014)
Month to date snowfall 1.5 1.1  
Since 1 July snowfall 18.9 17.7  
Snow Depth 1.00 in    
Sea Level Pressure  
Sea Level Pressure 29.91 in    
Wind  
Wind Speed 7 mph (SSW)    
Max Wind Speed 16 mph    
Max Gust Speed 21 mph    
Visibility 9 miles    
Events Snow    
T = Trace of Precipitation, MM = Missing Value Source: NWS Daily Summary

Daily Weather History Graph

Daily Weather History Graph

Search for Another Location

Airport or City:

Trip Planner

Search our weather history database for the weather conditions in past years. The results will help you decide how hot, cold, wet, or windy it might be!

Date:

Astronomy

Feb. 04, 2013 Rise Set
Actual Time 7:49 AM EST 6:08 PM EST
Civil Twilight 7:21 AM EST 6:37 PM EST
Nautical Twilight 6:49 AM EST 7:09 PM EST
Astronomical Twilight 6:18 AM EST 7:40 PM EST
Moon 2:24 AM EST (2/4) 12:32 PM EST (2/4)
Length of Visible Light 11h 15m
Length of Day
10h 18m
Last Quarter, 37% of the Moon is Illuminated
Feb 4
Last Quarter
Feb 10
New
Feb 17
First Quarter
Feb 25
Full
Mar 4
Last Quarter

Hourly Weather History & Observations

Time (EST) Temp. Windchill Dew Point Humidity Pressure Visibility Wind Dir Wind Speed Gust Speed Precip Events Conditions
12:54 AM 19.9 °F 11.1 °F 12.9 °F 74% 30.11 in 10.0 mi SW 6.9 mph - N/A   Overcast
1:54 AM 19.9 °F 14.9 °F 12.9 °F 74% 30.09 in 10.0 mi SSW 3.5 mph - N/A   Mostly Cloudy
2:54 AM 19.9 °F 14.9 °F 14.0 °F 78% 30.09 in 10.0 mi SSW 3.5 mph - N/A   Overcast
3:54 AM 21.9 °F 15.7 °F 15.1 °F 75% 30.06 in 10.0 mi South 4.6 mph - N/A   Overcast
5:54 AM 21.9 °F 13.4 °F 16.0 °F 78% 30.01 in 10.0 mi SSE 6.9 mph - N/A   Overcast
6:54 AM 23.0 °F 13.1 °F 17.1 °F 78% 29.98 in 10.0 mi SSE 9.2 mph - N/A   Overcast
7:54 AM 23.0 °F 13.1 °F 17.1 °F 78% 29.95 in 10.0 mi SSE 9.2 mph - N/A   Overcast
8:54 AM 24.1 °F 16.0 °F 18.0 °F 77% 29.93 in 10.0 mi SSE 6.9 mph - N/A   Overcast
9:54 AM 26.1 °F 15.0 °F 17.1 °F 69% 29.90 in 10.0 mi South 12.7 mph - N/A   Overcast
10:54 AM 28.9 °F 22.8 °F 19.0 °F 67% 29.88 in 10.0 mi SSE 5.8 mph - N/A   Overcast
11:54 AM 33.1 °F 30.0 °F 21.0 °F 61% 29.87 in 10.0 mi SSW 3.5 mph - N/A   Overcast
12:50 PM 33.8 °F 28.6 °F 23.0 °F 65% 29.84 in 10.0 mi SW 5.8 mph - N/A   Overcast
12:54 PM 33.1 °F 27.7 °F 23.0 °F 66% 29.86 in 10.0 mi SSW 5.8 mph - N/A   Overcast
1:02 PM 33.8 °F 27.7 °F 24.8 °F 70% 29.84 in 1.0 mi SSW 6.9 mph - 0.00 in Snow Light Snow
1:39 PM 32.0 °F 23.0 °F 28.4 °F 87% 29.82 in 2.0 mi SSW 11.5 mph - 0.01 in Snow Light Snow
1:45 PM 32.0 °F 23.0 °F 30.2 °F 93% 29.81 in 5.0 mi SSW 11.5 mph - 0.01 in Snow Light Snow
1:54 PM 32.0 °F 22.5 °F 30.9 °F 96% 29.84 in 6.0 mi SSW 12.7 mph - 0.01 in Snow Light Snow
2:54 PM 35.1 °F 25.2 °F 30.9 °F 85% 29.81 in 10.0 mi SSW 16.1 mph 20.7 mph 0.00 in   Overcast
3:54 PM 36.0 °F 27.1 °F 30.9 °F 82% 29.81 in 10.0 mi WSW 13.8 mph - N/A   Mostly Cloudy
4:54 PM 37.4 °F 32.1 °F 30.2 °F 75% 29.79 in 10.0 mi WSW 6.9 mph - N/A   Partly Cloudy
5:54 PM 36.0 °F - 30.0 °F 79% 29.82 in 10.0 mi Calm Calm - N/A   Scattered Clouds
6:54 PM 35.1 °F 32.2 °F 30.0 °F 82% 29.83 in 10.0 mi SW 3.5 mph - N/A   Mostly Cloudy
7:54 PM 33.1 °F 26.9 °F 30.0 °F 89% 29.86 in 10.0 mi NNW 6.9 mph - N/A   Overcast
8:54 PM 33.1 °F 23.9 °F 27.0 °F 78% 29.88 in 10.0 mi NNW 12.7 mph - N/A   Overcast
9:52 PM 30.2 °F 21.9 °F 24.8 °F 80% 29.87 in 10.0 mi North 9.2 mph - N/A   Mostly Cloudy
9:54 PM 30.9 °F 23.5 °F 25.0 °F 79% 29.90 in 10.0 mi North 8.1 mph - N/A   Mostly Cloudy
10:54 PM 30.0 °F 25.2 °F 25.0 °F 82% 29.89 in 10.0 mi NNE 4.6 mph - N/A   Overcast
11:54 PM 30.0 °F 22.4 °F 24.1 °F 79% 29.91 in 10.0 mi North 8.1 mph - N/A   Overcast